Regional Weather Roundup
Issued by NWS

Home | Current Version | Previous Version | Graphics & Text | Print | Product List | Glossary On
Versions: 1 2 3 4 5 6 7 8 9 10 11 12 13 14 15 16 17 18 19 20 21 22 23 24 25 26 27 28 29 30 31 32 33 34 35 36 37 38 39 40 41 42 43 44 45 46 47 48 49 50
774
ASUS43 KMKX 232100
RWRWI

WISCONSIN REGIONAL WEATHER ROUNDUP
NATIONAL WEATHER SERVICE MILWAUKEE/SULLIVAN WI
400 PM CDT SAT JUL 23 2016

NOTE: "FAIR" INDICATES FEW OR NO CLOUDS BELOW 12,000 FEET WITH NO
SIGNIFICANT WEATHER AND/OR OBSTRUCTIONS TO VISIBILITY.

WIZ001-002-006>008-014>016-023>028-232200-
NORTHWEST WISCONSIN

CITY           SKY/WX    TMP DP  RH WIND       PRES   REMARKS
SUPERIOR ARPT  CLOUDY    65  61  87 NE6       29.90F
ASHLAND        CLOUDY    71  64  78 NW5       29.91S
HAYWARD        LGT RAIN  73  70  90 CALM      29.93R
SIREN          RAIN      72  68  88 SW8       29.91S
CUMBERLAND       N/A     70  68  94 S6        29.90F
RICE LAKE      LGT RAIN  72  69  89 SE3       29.90F
CHETEK         CLOUDY    73  71  95 SE7       29.87F
LADYSMITH      CLOUDY    76  69  79 SE8G16    29.93F
EAU CLAIRE     NOT AVBL
MENOMONIE      CLOUDY    75  74  99 SE8       29.86F
NEW RICHMOND   CLOUDY    71  69  94 E5        29.86F
OSCEOLA        HVY RAIN  70  70 100 N8        29.93R
$$

WIZ003>005-009-010-017-018-232200-
NORTH CENTRAL WISCONSIN

CITY           SKY/WX    TMP DP  RH WIND       PRES   REMARKS
MANITOWISH WTR CLOUDY    80  68  68 S8        29.95F HX  82
ARBOR VITAE    CLOUDY    80  67  66 S6        29.96F HX  82
WOODRUFF       CLOUDY    80  67  66 S6        29.96F HX  82
RHINELANDER    CLOUDY    79  66  64 SE7       29.97F HX  81
EAGLE RIVER    CLOUDY    80  60  51 S6        29.96F HX  81
LAND O LAKES   CLOUDY    82  61  49 S6        29.98F HX  82
PHILLIPS       CLOUDY    77  71  81 S10G20    29.93F
TOMAHAWK       LGT RAIN  77  67  72 S5        29.96F
MEDFORD        RAIN      72  72 100 S5        29.97F
MERRILL        CLOUDY    76  72  85 S5        29.97F
$$

WIZ029-030-035-036-043>047-232200-
CENTRAL WISCONSIN

CITY           SKY/WX    TMP DP  RH WIND       PRES   REMARKS
WAUSAU         CLOUDY    78  69  73 S8        29.95F HX  80
MOSINEE        MOSUNNY   77  70  78 SW7       29.98F
MARSHFIELD     LGT RAIN  73  69  87 SW7       29.97F
STEVENS POINT  CLOUDY    79  70  73 SW7       29.98F HX  81
WAUPACA        CLOUDY    84  73  69 CALM      29.97F HX  90
WAUTOMA        CLOUDY    78  75  90 S6        29.97F HX  81
WISC RAPIDS    LGT RAIN  75  69  81 SW3       30.00R
CAMP DOUGLAS   NOT AVBL
$$

WIZ011>013-019>022-031-037>040-048>050-232200-
NORTHEAST WISCONSIN

CITY           SKY/WX    TMP DP  RH WIND       PRES   REMARKS
ANTIGO         CLOUDY    78  69  74 CALM      29.99F
SHAWANO        CLOUDY    85  70  60 SE3       29.97F HX  89
OCONTO         CLOUDY    82  67  61 CALM      29.97R HX  84
STURGEON BAY   CLOUDY    82  64  54 S5        29.98S HX  83
GREEN BAY      CLOUDY    83  67  58 SE8       29.96F HX  85
MANITOWOC      NOT AVBL
APPLETON       CLOUDY    82  66  57 VRB3      29.96F HX  85
CLINTONVILLE   CLOUDY    82  68  61 S6        29.96F HX  85
OSHKOSH        CLOUDY    83  74  74 CALM      29.96F HX  89
$$

WIZ032>034-041-042-053>061-232200-
SOUTHWEST WISCONSIN

CITY           SKY/WX    TMP DP  RH WIND       PRES   REMARKS
LA CROSSE      RAIN      72  70  93 SE12      29.91F FOG
SPARTA         NOT AVBL
VIROQUA        CLOUDY    70  70 100 CALM      30.02R
BOSCOBEL       LGT RAIN  73  72  96 NW10      29.96R
PRAIRIE DU CHI CLOUDY    71  69  96 NW16G24   29.95R
PLATTEVILLE    CLOUDY    76  73  90 E8        29.93F
$$

WIZ056-057-062-063-064-067-068-232200-
SOUTH CENTRAL WISCONSIN

CITY           SKY/WX    TMP DP  RH WIND       PRES   REMARKS
REEDSBURG      LGT RAIN N/A N/A N/A E5        29.95S
BARABOO/DELLS  CLOUDY    74  70  88 CALM      29.97R
LONE ROCK      NOT AVBL
MINERAL POINT  CLOUDY    75  72  88 CALM      29.95R
MADISON        CLOUDY    71  69  93 S8        29.97R
MIDDLETON      CLOUDY    73  72  98 CALM      29.97R
WATERTOWN      LGT RAIN  71  71 100 E6        29.96F
MONROE         CLOUDY    72  70  94 NE5       29.97R
JANESVILLE     LGT RAIN  72  70  94 NE8G25    29.97F FOG
$$

WIZ051-052-058>065-066-070>072-232200-
SOUTHEAST WISCONSIN

CITY           SKY/WX    TMP DP  RH WIND       PRES   REMARKS
MILWAUKEE      TSTM      80  73  79 NE8       29.96S HX  84
WAUKESHA       TSTM      72  66  83 S7        30.00S
MILWAUKEE/TIMM TSTM      81  70  69 SE3       29.98S HX  84
RACINE         LGT RAIN  81  75  82 E5        29.97F HX  87
BURLINGTON     RAIN      78  76  92 NW3       29.95F HX  81
KENOSHA        CLOUDY    82  76  81 NE7       29.96F HX  89
FOND DU LAC    LGT RAIN  82  75  79 SW6       29.98R HX  89
SHEBOYGAN      CLOUDY    82  71  69 S5        29.97F HX  86
WEST BEND      LGT RAIN  81  72  74 CALM      29.99R HX  84
JUNEAU         CLOUDY    72  69  89 SW9       30.02R
$$

LSZ147-162-232200-
LAKE SUPERIOR

STATION/POSITION TIME  TEMP    WIND        PRES    WAVE
                       AIR SEA DIR/SP/G            HT/PER
                 (UTC) (F)     (DEG/KT/KT) (MB)    (FT/S)
W MID LAKE BUOY  1950   61 59   70/ 14/ 16 1013.0F   1/ 3
DEVILS ISLAND    2000   63      60/ 11/ 13 1012.9F
PORT WING        2000   65      30/ 16/ 22 1012.2F
SAXON HARBOR     2000   72     350/  2/  4 1012.2F
$$

LMZ867-665-643>646-232200-
LAKE MICHIGAN

STATION/POSITION TIME  TEMP    WIND        PRES    WAVE
                       AIR SEA DIR/SP/G            HT/PER
                 (UTC) (F)     (DEG/KT/KT) (MB)    (FT/S)
CHAMBERS ISLAND  2000   82      90/  4/  7 1014.2F
S GREEN BAY BUOY 2000   76 76   70/  4/  4   N/A
N MID LAKE BUOY  1950   73 73   CALM  /  2 1014.7F   1
NORTHPORT PIER   2000   78     140/  6/  8 1014.9F
KEWAUNEE LAKESHO 2000   72      40/  3/  5 1015.0F
SHEBOYGAN LAKESH 2000   69      30/  4/  4 1015.2F
PORT WASHINGTON  2000   68      40/  4/  4 1015.6
MILWAUKEE LAKESH 2010   71      40/  6/  7   N/A
S MID LAKE BUOY  1950   80 78  140/  2/  2 1014.2F   0
KENOSHA   LAKESH 2000   78     160/  1/  2 1014.2F
$$

TC  - TEMPERATURE IN CELSIUS
VSB - VISIBILITY IN STATUTE MILES
WCI - WIND CHILL INDEX
HX  - HEAT INDEX





USA.gov is the U.S. government's official web portal to all federal, state and local government web resources and services.